237P/LINEAR (2016)

Japanese version
Home page
Updated on January 17, 2017

---------------------------------------------------------------------

* Profile

* Pictures

* Orbital Elements

Epoch 2016 Oct. 19.0 TT = JDT 2457680.5
T 2016 Oct. 11.67445 TT                                 MPCW
q   1.9848401            (2000.0)            P               Q
n   0.14990679     Peri.   25.04096     -0.00318789     +0.97540944
a   3.5095803      Node   245.43370     -0.95343601     -0.06942654
e   0.4344509      Incl.   14.02300     -0.30157853     +0.20918024
P   6.57
From 119 observations 2002 May 17-2016 Apr. 16, mean residual 0".5.

* Finding Charts

* Magnitudes Graph

        H = 15.0  G = 0.15             [    ,-194]  (             - 2016 Mar. 31)
        m1 = -12 + 5 log d + 75 log r  [-194, 200]  (2016 Mar. 31 - 2017 Apr. 29)
        H = 15.0  G = 0.15             [ 200,    ]  (2017 Apr. 29 -             )

---------------------------------------------------------------------

The orbital elements are published on M.P.E.C. 2016-H35.
The charts are made with StellaNavigator Ver.8 (AstroArts).
The magnitudes graphs are made with Comet for Windows.

---------------------------------------------------------------------

Copyright(C) Seiichi Yoshida (comet@aerith.net). All rights reserved.